Weather History for PHTO - November, 2014

Change the Weather History Date:

Sunday, November 9, 2014

  Actual Average Record
Temperature  
Mean Temperature 74 °F 75 °F  
Max Temperature 79 °F 81 °F 86 °F (1955)
Min Temperature 69 °F 68 °F 62 °F (1970)
Degree Days  
Heating Degree Days 0 0  
Month to date heating degree days 0 0  
Since 1 July heating degree days 0 0  
Cooling Degree Days 9 9  
Month to date cooling degree days 86 89  
Year to date cooling degree days 3212 2824  
Growing Degree Days 22 (Base 50)    
Moisture  
Dew Point 68 °F    
Average Humidity 84    
Maximum Humidity 93    
Minimum Humidity 74    
Precipitation  
Precipitation T in 0.53 in 2.88 in (2005)
Month to date precipitation 3.89 4.66  
Year to date precipitation 104.00 104.31  
Snow  
Snow 0.00 in - - ()
Month to date snowfall 0.0  
Since 1 July snowfall 0.0  
Since 1 September snowfall 0.0  
Snow Depth 0.00 in    
Sea Level Pressure  
Sea Level Pressure 29.96 in    
Wind  
Wind Speed 6 mph (NW)    
Max Wind Speed 13 mph    
Max Gust Speed 15 mph    
Visibility 10 miles    
Events Rain    
T = Trace of Precipitation, MM = Missing Value Source: NWS Daily Summary

Daily Weather History Graph

Daily Weather History Graph

Search for Another Location

Airport or City:

Trip Planner

Search our weather history database for the weather conditions in past years. The results will help you decide how hot, cold, wet, or windy it might be!

Date:

Astronomy

Nov. 09, 2014 Rise Set
Actual Time 6:25 AM HST 5:42 PM HST
Civil Twilight 6:02 AM HST 6:05 PM HST
Nautical Twilight 5:36 AM HST 6:31 PM HST
Astronomical Twilight 5:09 AM HST 6:57 PM HST
Moon 8:30 PM HST (11/9) 9:01 AM HST (11/9)
Length of Visible Light 12h 02m
Length of Day
11h 17m
Waning Gibbous, 90% of the Moon is Illuminated
Nov 9
Waning Gibbous
Nov 14
Last Quarter
Nov 22
New
Nov 29
First Quarter
Dec 6
Full

Hourly Weather History & Observations

Time (HST) Temp. Dew Point Humidity Pressure Visibility Wind Dir Wind Speed Gust Speed Precip Events Conditions
12:09 AM 72.0 °F 69.1 °F 91% 29.98 in 10.0 mi NW 9.2 mph - N/A   Overcast
12:53 AM 72.0 °F 69.1 °F 91% 29.97 in 10.0 mi NW 8.1 mph - N/A   Overcast
1:04 AM 72.0 °F 69.1 °F 91% 29.97 in 10.0 mi WNW 6.9 mph - N/A   Overcast
1:53 AM 71.1 °F 68.0 °F 90% 29.96 in 10.0 mi WSW 3.5 mph - N/A   Overcast
2:24 AM 72.0 °F 69.1 °F 91% 29.95 in 10.0 mi North 6.9 mph - N/A   Overcast
2:53 AM 72.0 °F 69.1 °F 91% 29.94 in 10.0 mi NNW 8.1 mph - N/A   Overcast
3:36 AM 72.0 °F 68.0 °F 87% 29.94 in 10.0 mi NNW 5.8 mph - N/A   Overcast
3:53 AM 72.0 °F 68.0 °F 87% 29.94 in 10.0 mi NNW 9.2 mph - N/A   Overcast
4:53 AM 71.1 °F 68.0 °F 90% 29.95 in 10.0 mi SW 4.6 mph - N/A   Overcast
5:53 AM 71.1 °F 66.9 °F 87% 29.95 in 10.0 mi Calm Calm - N/A   Overcast
6:53 AM 69.1 °F 66.0 °F 90% 29.96 in 10.0 mi WSW 4.6 mph - N/A   Overcast
7:53 AM 71.1 °F 66.0 °F 84% 29.97 in 10.0 mi SW 3.5 mph - N/A   Mostly Cloudy
8:53 AM 73.9 °F 70.0 °F 87% 29.99 in 10.0 mi NNE 8.1 mph - 0.00 in Rain Light Rain
9:19 AM 73.9 °F 69.1 °F 85% 30.00 in 10.0 mi North 10.4 mph - 0.00 in   Overcast
9:45 AM 73.0 °F 69.1 °F 87% 30.00 in 6.0 mi North 10.4 mph - 0.00 in Rain Light Rain
9:53 AM 73.0 °F 70.0 °F 90% 29.99 in 10.0 mi North 10.4 mph - 0.00 in   Mostly Cloudy
10:53 AM 75.9 °F 69.1 °F 79% 29.98 in 10.0 mi North 6.9 mph - N/A   Mostly Cloudy
11:53 AM 79.0 °F 69.1 °F 72% 29.95 in 10.0 mi NE 9.2 mph - N/A   Mostly Cloudy
12:53 PM 75.9 °F 66.9 °F 74% 29.93 in 10.0 mi North 11.5 mph - N/A   Overcast
1:36 PM 75.9 °F 66.9 °F 74% 29.92 in 10.0 mi North 9.2 mph - N/A   Overcast
1:53 PM 75.9 °F 66.9 °F 74% 29.91 in 10.0 mi North 9.2 mph - N/A   Overcast
2:53 PM 75.9 °F 66.9 °F 74% 29.91 in 10.0 mi NNE 5.8 mph - N/A   Overcast
3:53 PM 75.9 °F 66.0 °F 71% 29.91 in 10.0 mi North 6.9 mph - N/A   Overcast
4:45 PM 73.9 °F 66.9 °F 79% 29.94 in 7.0 mi North 8.1 mph - 0.00 in Rain Light Rain
4:53 PM 73.0 °F 66.9 °F 81% 29.93 in 7.0 mi NNW 4.6 mph - 0.00 in Rain Light Rain
5:38 PM 72.0 °F 68.0 °F 87% 29.95 in 9.0 mi NW 11.5 mph - 0.00 in Rain Light Rain
5:53 PM 72.0 °F 68.0 °F 87% 29.96 in 10.0 mi NW 5.8 mph - 0.00 in   Overcast
6:44 PM 72.0 °F 66.9 °F 84% 29.98 in 10.0 mi West 4.6 mph - N/A   Overcast
6:53 PM 72.0 °F 66.9 °F 84% 29.98 in 10.0 mi West 5.8 mph - N/A   Overcast
7:53 PM 72.0 °F 66.9 °F 84% 30.01 in 10.0 mi WSW 3.5 mph - N/A   Overcast
8:53 PM 71.1 °F 66.9 °F 87% 30.01 in 10.0 mi WSW 4.6 mph - N/A   Overcast
9:53 PM 72.0 °F 66.9 °F 84% 30.02 in 10.0 mi WSW 4.6 mph - N/A   Overcast
10:53 PM 72.0 °F 66.0 °F 81% 30.02 in 10.0 mi SW 5.8 mph - N/A   Overcast
11:53 PM 70.0 °F 66.0 °F 87% 30.01 in 10.0 mi SW 4.6 mph - N/A   Mostly Cloudy